Zurück zum Katalog

STARLINK-30492

AktivKommunikationVLEO
NORAD 57921·PAYLOAD·🇺🇸 United States

Gestartet Sep 24, 2023 von Cape Canaveral Space Force Station

Loading…

Nächste Überflüge (nächste 24 Stunden)

TLE

AktuellSource: CelesTrak SupGP

Epoche: Sep 15, 2026, 02:48 UTC

1 57921C 23147J   26258.11715278  .00041078  00000+0  14879-2 0  2584
2 57921  43.0010 335.5632 0001642 270.4746 205.2317 15.27556102    19

Verfolge STARLINK-30492 in Echtzeit mit AllMySat

Download on the App Store